Theta_e
309 310 311 311 311 312 312 313 313 312 313 312 312 311 308 307 307 308 307 308 307 305 303 302 303 302 298 295 293 291 291 289 286 284 285 286 285 285 284 283 283 283 284
309 309 309 310 310 310 311 311 311 311 312 312 311 310 308 307 306 306 306 306 306 303 303 301 301 299 297 293 295 291 289 289 287 284 285 285 285 284 284 283 283 284 284
309 309 309 309 309 309 309 309 309 310 311 311 310 309 308 307 306 304 304 304 304 304 303 301 300 297 292 295 289 288 289 288 290 287 284 284 284 283 283 282 283 283 283
309 308 308 309 309 308 308 308 308 309 309 309 309 308 307 306 306 304 302 301 301 301 301 300 297 295 294 291 288 288 288 288 287 287 284 283 283 283 283 283 283 283 283
308 308 308 308 308 307 307 306 306 307 307 307 306 305 304 303 302 301 300 299 298 298 297 295 294 293 293 293 287 287 287 286 286 285 284 283 283 282 282 283 282 282 282
307 307 308 307 307 306 306 306 305 305 305 304 303 302 301 300 300 299 298 296 295 295 293 291 290 290 291 288 287 287 288 290 285 284 284 283 283 284 284 283 282 282 281
305 305 305 305 305 305 304 304 304 304 303 302 301 300 298 298 298 297 294 294 292 291 289 289 288 288 289 286 286 289 288 287 288 288 287 284 285 284 285 282 282 282 281
302 302 302 302 303 303 302 303 303 302 301 300 299 297 295 295 295 293 291 290 289 288 288 288 287 286 286 285 289 285 285 286 288 287 285 285 284 286 282 282 282 281 280
298 298 299 299 299 300 300 300 300 300 298 297 296 295 293 293 292 290 288 287 287 286 286 286 288 288 284 290 286 285 287 288 289 286 285 283 283 286 283 282 281 281 280
296 296 296 295 296 296 297 297 297 297 296 295 293 292 291 290 289 287 288 286 284 284 283 285 286 285 287 288 287 290 288 289 288 285 283 283 283 284 283 283 282 281 280
292 292 293 293 293 294 294 294 294 293 292 291 290 289 289 288 287 287 288 285 284 283 283 283 283 284 289 287 289 291 290 290 289 286 283 283 283 283 281 281 281 280 279
290 290 291 291 292 292 292 291 291 290 288 287 286 286 285 286 286 287 288 284 283 283 283 283 284 285 288 287 290 289 290 288 288 286 284 282 282 281 280 280 280 279 278
288 288 289 289 289 290 290 289 288 287 286 284 284 283 283 284 284 286 288 284 284 284 283 284 284 286 287 288 288 290 288 286 287 284 283 282 282 281 281 279 278 277 275
287 287 287 287 287 287 287 287 287 285 284 283 283 282 283 284 284 285 287 285 285 284 284 283 284 286 287 287 288 287 287 286 285 284 283 282 282 281 280 278 276 275 273
286 286 286 286 286 286 286 285 285 285 285 284 283 283 283 283 284 285 285 285 285 284 284 284 285 285 286 286 287 287 287 286 285 284 283 282 281 280 278 276 275 273 271
285 285 285 285 285 285 285 285 285 284 284 285 284 284 284 284 283 284 285 285 285 285 285 285 285 286 286 285 286 285 286 285 284 283 283 282 280 278 277 274 273 272 270
286 286 286 285 285 285 285 285 285 286 286 286 286 285 285 285 284 285 286 286 285 286 285 285 285 285 285 285 285 285 284 283 283 282 281 280 279 277 276 273 272 270 269
286 286 286 285 285 285 285 285 285 285 284 284 285 286 286 286 285 285 286 286 286 287 286 285 285 285 285 285 284 283 282 281 280 280 279 278 277 276 273 271 270 269 268
285 285 285 285 285 285 285 285 284 283 282 282 283 284 284 285 286 286 285 285 285 286 286 285 285 285 284 283 282 282 281 280 279 278 276 275 274 273 271 270 269 268 267
283 283 284 284 284 284 285 284 283 281 280 280 280 280 282 283 283 283 284 284 284 283 282 282 281 281 280 279 279 278 278 277 276 275 274 273 272 271 269 268 267 266 266
280 280 281 281 281 281 281 281 280 280 278 277 278 279 279 280 279 279 279 280 279 279 279 278 278 277 277 277 276 275 275 274 273 273 272 271 270 268 267 266 266 265 265
278 277 278 277 277 277 277 277 277 276 275 275 275 274 276 277 276 276 276 276 276 276 276 276 275 275 274 274 273 273 272 272 271 271 270 269 267 266 266 265 264 264 263
276 275 275 274 274 274 274 274 273 273 273 272 273 273 273 273 273 273 273 272 272 272 272 272 272 272 271 271 271 270 270 269 268 267 266 266 265 265 264 264 264 263 262
274 273 272 271 271 271 271 270 270 270 270 270 270 270 270 270 270 270 270 269 269 269 269 268 268 268 267 267 266 266 266 266 265 265 265 264 264 264 263 263 263 262 262
269 269 269 268 268 267 267 267 267 267 267 267 266 266 266 266 266 266 266 266 266 266 266 265 265 265 265 265 265 264 264 264 264 264 263 263 263 263 262 262 262 261 261
267 267 267 267 266 266 266 266 266 266 266 266 266 266 266 265 265 265 265 265 265 264 264 264 264 264 264 264 264 264 264 263 263 263 262 262 262 262 261 261 261 260 260
Wind_Speed
22 25 28 32 33 34 36 38 38 36 35 36 34 34 36 39 44 43 39 42 44 42 40 44 45 41 39 37 33 32 27 19 11 7 22 19 30 28 25 20 17 14 12
19 22 26 28 29 32 36 38 36 37 36 35 34 34 35 36 41 44 43 44 44 41 43 41 41 41 40 39 35 33 30 22 18 16 18 23 24 25 22 19 17 14 12
21 23 24 27 30 34 36 36 34 36 36 37 36 36 35 35 38 41 42 44 43 44 43 44 44 42 42 36 34 33 29 21 19 20 16 24 22 22 21 19 16 14 13
24 26 28 30 32 35 36 34 34 35 35 36 36 36 35 34 37 39 41 41 41 41 41 42 41 44 42 36 33 35 32 25 21 22 18 24 20 19 20 17 15 13 11
27 28 30 32 32 31 32 31 30 32 33 33 34 35 35 34 36 37 38 40 40 38 37 37 39 38 36 32 38 37 34 29 24 27 19 13 16 14 18 11 13 10 12
25 29 30 30 29 30 30 31 30 31 32 33 34 35 35 35 36 36 37 38 38 38 37 37 36 34 31 32 36 39 34 31 29 24 18 18 20 16 13 13 11 8 3
19 23 27 28 28 29 27 28 30 31 32 33 34 33 33 34 35 35 35 37 37 35 35 36 34 32 31 38 37 32 31 27 24 20 25 19 18 15 14 14 13 12 11
21 22 23 26 28 26 26 28 29 30 32 33 33 31 31 31 32 32 31 33 33 33 34 35 35 35 38 43 36 31 28 23 21 20 18 15 15 13 14 11 12 12 14
24 23 22 21 21 23 24 26 27 27 28 29 29 28 28 29 28 26 27 30 28 29 31 33 34 35 43 41 39 34 27 25 20 19 15 16 15 17 17 14 14 12 7
20 20 19 19 20 21 20 21 23 24 25 24 23 23 25 26 24 22 29 28 26 27 28 30 32 41 44 42 39 32 29 25 19 17 18 18 20 17 14 18 17 17 12
24 22 18 14 14 14 15 15 18 19 17 18 18 20 20 20 19 19 27 27 26 26 28 28 33 38 44 40 36 31 24 12 12 14 22 26 24 20 19 21 19 18 16
20 19 16 13 10 10 11 9 10 12 13 13 14 13 14 14 16 21 26 21 23 26 27 29 31 31 38 33 29 23 11 11 9 12 17 22 21 20 21 20 18 15 13
13 14 11 10 10 8 8 11 12 11 11 9 10 9 10 12 14 18 24 20 20 20 21 27 28 30 30 25 20 15 13 14 13 15 21 23 22 20 20 20 17 14 13
11 9 6 7 5 6 6 8 11 13 12 11 9 6 8 11 14 16 23 19 17 19 21 22 25 27 27 25 24 22 17 16 20 23 23 21 19 19 22 22 20 17 15
8 7 4 6 6 5 5 7 9 7 9 11 11 11 13 15 17 15 19 18 19 19 21 23 23 25 24 25 26 21 18 17 22 25 24 22 22 24 24 22 19 18 17
9 6 5 9 8 8 7 5 1 1 3 3 4 7 8 7 11 14 17 17 18 18 19 17 17 19 20 21 24 21 19 23 23 23 22 23 26 26 23 21 20 19 19
12 11 10 9 8 10 9 10 6 6 1 2 5 5 4 5 12 15 17 18 18 21 18 17 16 18 20 23 22 23 25 24 23 21 21 23 23 21 21 21 21 19 18
11 10 10 9 10 10 9 10 15 11 11 11 12 8 5 6 9 14 15 16 16 18 18 18 18 19 21 22 22 23 22 19 21 21 20 21 21 22 22 22 22 21 19
7 8 9 10 10 9 9 10 9 9 10 8 6 6 8 8 9 9 11 15 14 14 12 14 18 18 16 15 15 17 18 19 20 20 19 20 21 21 21 21 21 19 18
9 7 9 11 12 11 11 11 10 10 10 11 12 10 6 5 8 7 7 6 9 9 7 7 7 8 7 9 12 13 14 15 16 17 19 20 20 20 21 21 20 20 21
12 12 12 13 14 12 11 11 11 12 12 12 12 10 7 9 10 9 8 6 5 2 1 3 5 7 7 9 10 12 13 14 16 18 18 18 18 20 20 19 19 19 19
16 16 16 17 15 15 14 13 13 13 11 12 11 10 8 9 8 7 5 4 2 1 1 2 3 4 6 7 9 11 13 14 15 17 18 18 18 19 19 19 19 19 18
18 18 18 17 17 16 16 14 14 13 12 10 8 9 8 7 6 5 3 2 1 2 3 4 4 5 7 9 11 12 14 15 14 15 16 18 19 19 20 20 20 20 20
19 20 19 17 17 17 17 16 15 13 12 10 9 8 8 6 5 3 3 3 3 3 3 4 5 7 8 9 10 11 12 12 14 14 14 16 17 18 19 20 21 20 20
20 21 20 18 17 16 15 14 12 11 10 8 6 6 5 4 4 3 4 4 5 6 6 7 7 8 9 10 10 11 11 13 14 14 15 16 17 17 19 20 21 21 20
19 19 18 16 15 13 12 10 8 6 6 5 4 4 3 3 4 5 6 7 8 8 9 9 10 10 11 12 12 13 13 15 16 16 17 17 18 19 20 21 21 21 21
Wind_Direction
243 242 242 243 243 245 246 247 246 250 247 244 242 244 242 237 232 225 221 224 225 221 221 224 228 228 220 217 215 208 214 193 143 161 197 201 201 209 211 219 227 236 249
252 248 246 248 247 246 246 247 247 247 247 246 242 241 243 238 235 228 222 224 224 219 221 220 219 217 220 211 214 214 199 193 172 155 179 185 199 205 211 223 229 242 259
246 246 249 250 249 248 249 249 247 244 243 244 242 237 238 238 235 234 229 228 226 227 226 220 219 215 209 211 205 197 194 189 184 168 165 186 194 202 212 221 228 243 258
247 245 248 253 257 256 256 254 249 244 243 238 238 239 239 238 236 236 233 229 230 229 227 224 220 216 214 209 202 196 186 180 175 172 170 180 192 199 212 218 230 246 262
255 251 255 262 268 267 262 261 258 251 249 245 241 239 240 240 238 235 234 232 230 227 226 223 223 220 217 212 199 192 184 177 174 173 162 168 181 186 206 224 233 250 273
266 259 267 268 273 273 269 263 256 249 246 245 241 243 242 241 241 241 238 232 228 224 217 217 215 214 211 205 209 194 187 185 185 177 176 183 195 206 210 223 229 242 259
288 277 271 270 271 274 272 261 252 245 242 239 241 243 242 241 243 243 238 232 228 217 209 209 205 206 198 201 197 191 197 197 203 197 206 197 207 206 230 221 229 244 248
304 297 293 286 279 275 267 255 247 242 241 238 239 243 244 245 245 244 238 229 225 218 215 211 204 194 198 193 187 190 192 194 206 214 211 216 215 219 227 248 253 254 272
313 308 302 297 284 278 270 262 253 247 242 238 240 242 241 244 245 238 216 218 216 213 209 206 201 201 193 188 187 186 191 208 213 218 210 219 220 243 233 237 234 241 256
309 306 304 297 286 278 275 267 258 249 245 244 246 248 250 248 242 226 209 205 198 191 194 203 210 201 187 188 190 191 197 206 212 212 211 222 236 237 221 238 244 228 222
309 303 297 288 283 280 276 265 261 255 246 242 242 243 244 245 241 218 202 200 191 176 183 189 194 197 188 190 195 194 200 208 223 222 229 239 244 226 228 235 238 238 230
305 303 298 291 275 268 255 248 247 245 239 232 235 236 236 233 226 205 197 201 194 195 189 189 194 191 189 189 194 196 206 229 229 235 233 236 228 217 220 226 228 231 244
296 292 292 283 275 257 226 208 193 208 216 220 221 220 228 222 212 203 195 187 196 201 198 196 190 190 189 189 201 221 221 222 238 223 226 228 229 229 225 211 216 229 242
289 276 268 260 246 235 227 223 200 195 193 192 199 197 208 207 209 209 194 187 194 196 193 190 190 190 203 215 225 221 220 231 237 238 231 233 232 218 205 210 212 225 235
274 260 231 237 205 197 191 215 231 218 217 196 201 197 196 202 208 195 186 193 187 185 182 174 180 188 201 213 223 229 224 239 238 232 225 223 210 204 204 210 224 222 227
253 235 209 216 187 154 153 153 177 198 192 161 177 193 206 225 201 193 195 192 188 180 167 168 179 190 201 211 220 228 246 248 241 234 226 216 209 209 212 216 227 230 233
245 224 207 197 180 166 165 142 130 102 184 117 123 112 127 151 175 180 184 185 183 180 175 184 189 197 207 219 232 248 250 247 243 229 220 216 216 221 223 222 227 231 232
226 213 192 184 174 156 155 150 138 130 110 86 101 115 138 148 164 186 185 187 194 200 197 189 200 218 226 236 240 242 243 240 230 225 226 229 228 228 221 224 228 232 236
189 192 184 165 160 153 153 150 141 125 111 94 97 97 107 125 159 174 180 195 204 211 226 211 223 234 237 241 246 247 242 237 231 230 231 230 228 225 227 234 236 236 236
139 148 146 134 127 120 123 131 123 114 100 93 90 83 100 134 133 120 128 161 186 190 201 204 206 220 240 255 242 233 232 230 230 230 230 229 228 229 235 237 234 232 234
118 113 117 111 102 103 104 103 111 116 105 97 78 60 70 103 101 105 110 111 107 120 232 259 251 252 254 251 247 244 243 240 237 238 238 237 237 233 236 237 236 238 242
113 105 96 92 97 98 97 101 104 103 102 103 90 73 93 96 101 102 102 108 123 158 227 243 245 254 255 255 256 253 249 249 248 249 248 245 240 237 236 237 237 237 237
103 100 98 96 98 100 96 95 96 97 99 98 89 80 83 87 88 87 77 68 324 270 267 264 259 257 257 260 260 258 256 258 262 258 249 243 239 236 236 238 238 237 239
107 106 103 99 98 95 95 92 91 92 92 87 83 82 77 75 73 59 30 11 348 326 311 301 287 278 275 270 265 261 258 255 252 250 247 245 244 242 240 240 241 242 244
102 102 102 100 98 94 91 88 86 85 85 83 79 68 55 40 26 5 347 337 325 320 314 302 295 291 285 280 275 271 267 263 261 258 252 250 249 247 245 244 245 245 244
94 94 93 92 89 88 86 84 80 73 62 48 25 10 351 337 330 327 322 315 313 309 303 300 296 291 287 283 279 274 269 265 262 258 256 252 249 246 243 244 244 244 245